Location: Peebles
(55.6412°N, 3.1714°W)
Time: 12:25:04
(UTC+00:00)

RS-15 - Pass Details

Date: 04 December 2023
Orbit: 1893 x 2151 km, 64.8° (Epoch: 02 March)

Event Time Altitude Azimuth Distance (km) Brightness Sun altitude
Exits shadow 07:28:32 - 311° (NW) 4,755 9.4 -6.9°
Reaches altitude 10° 07:29:58 10° 306° (NW) 4,433 9.2 -6.8°
Maximum altitude 07:37:47 22° 262° (W) 3,455 8.9 -5.8°
Drops below altitude 10° 07:45:25 10° 217° (SW) 4,301 9.8 -4.9°
Sets 07:49:38 0° 203° (SSW) 5,276 10.5 -4.4°
